[[{"header":{"parameterUnit":"m.s-1","parameterCategory":1,"la1":30.2991,"la2":30.254,"lo1":-89.0895,"lo2":-89.0444,"dy":0.0017,"dx":0.0017,"nx":28,"ny":28,"refTime":"2024-03-05T03:00:00:Z","depth":0,"parameterNumber":2,"parameterNumberName":"U-component_of_WINDS"},"data":[0,0,0,0,0,0,0,0,0,0,0,0,0,0,0,0,0,0,0,0,0,0,0,0,0,0,0,0,0,0,0,0,0,0,0,0,0,0,0,0,0,0,0,0,0,0,0,0,0,0,0,0,0,0,0,0,0,0,-8.1355,-8.1356,0,-8.143,-8.143,-8.1431,-8.1299,-8.1295,-8.129,-8.1286,-8.1364,-8.137,-8.1376,0,0,0,0,0,0,0,0,0,0,0,0,0,-8.1102,-8.1108,-8.1355,-8.1356,-8.1357,-8.1429,-8.143,-8.1431,-8.13,-8.1295,-8.1289,-8.1284,-8.1362,-8.1369,-8.1377,0,0,0,0,0,0,0,0,0,0,0,0,0,-8.1198,-8.111,-8.1355,-8.13,-8.1296,-8.1429,-8.143,-8.1432,-8.1301,-8.1294,-8.1288,-8.1282,-8.136,-8.1369,-8.1378,-8.1569,0,0,-8.1406,-8.141,0,0,0,0,0,0,0,0,-8.1193,-8.1208,-8.1307,-8.1304,-8.13,-8.1348,-8.137,-8.1478,-8.1303,-8.1299,-8.1286,-8.1278,-8.1364,-8.1373,-8.1401,-8.1572,-8.1576,-8.1407,-8.1413,-8.1417,-8.142,0,0,0,0,0,0,0,-8.1186,-8.1204,-8.1385,-8.1309,-8.1304,-8.1273,-8.1279,-8.139,-8.1368,-8.1299,-8.129,-8.13,-8.1361,-8.1393,-8.1402,-8.1577,-8.1407,-8.1415,-8.1421,-8.1425,-8.1908,-8.1915,0,0,0,0,0,0,-8.1186,-8.1199,-8.1382,-8.1387,-8.1229,-8.1283,-8.129,-8.1339,-8.1367,-8.1364,-8.1306,-8.1294,-8.138,-8.1392,-8.1405,-8.1628,-8.1417,-8.1426,-8.1431,-8.19,-8.1909,-8.1917,0,0,0,0,0,0,-8.1181,-8.1204,-8.1379,-8.129,-8.131,-8.1294,-8.1351,-8.1344,-8.1376,-8.1372,-8.1367,-8.1342,-8.1375,-8.1391,-8.1529,-8.1629,-8.143,-8.1438,-8.1892,-8.1903,-8.1913,-8.2079,0,0,0,0,0,0,-8.1175,-8.1203,-8.1274,-8.1293,-8.1316,-8.1502,-8.1357,-8.1351,-8.1392,-8.1377,-8.1404,-8.1403,-8.1371,-8.1515,-8.1538,-8.1639,-8.1445,-8.1883,-8.1897,-8.191,-8.2064,-8.2094,-8.2119,0,0,0,0,0,-8.1166,-8.1319,-8.1279,-8.1302,-8.1405,-8.1508,-8.1521,-8.1481,-8.1401,-8.1473,-8.147,-8.1402,-8.1616,-8.1531,-8.1555,-8.166,-8.1876,-8.1893,-8.1909,-8.2052,-8.2088,-8.2119,0,0,0,0,0,0,-8.1312,-8.132,-8.1276,-8.1439,-8.1474,-8.1485,-8.1574,-8.1521,-8.1579,-8.1563,-8.1512,-8.1519,-8.1667,-8.1677,-8.1583,-8.1846,-8.1732,-8.1754,-8.1833,-8.1867,-8.1895,-8.1888,-8.1453,0,0,0,0,0,-8.1364,-8.1446,-8.1449,-8.1592,-8.1612,-8.1591,-8.1634,-8.1601,-8.1635,-8.1649,-8.1657,-8.1693,-8.1768,-8.1819,-8.1888,-8.2066,-8.207,-8.2151,-8.2178,-8.2201,-8.222,-8.2314,-8.235,-8.1971,-8.197,-8.197,0,0,-8.147,-8.1485,-8.154,-8.1622,-8.1645,-8.1732,-8.1604,-8.1701,-8.1765,-8.1664,-8.1793,-8.1801,-8.1838,-8.1997,-8.2067,-8.201,-8.2326,-8.2222,-8.224,-8.2246,-8.2335,-8.2371,-8.2402,-8.1982,-8.198,-8.1978,0,0,-8.1708,-8.1728,-8.1849,-8.1875,-8.1911,-8.1897,-8.1926,-8.1947,-8.1948,-8.2077,-8.2002,-8.2079,-8.221,-8.2239,-8.2271,-8.2523,-8.2462,-8.2548,-8.2691,-8.2784,-8.2813,-8.284,-8.2928,-8.296,-8.2567,-8.2567,-8.2568,0,-8.1836,-8.1963,-8.1918,-8.2021,-8.2059,-8.1972,-8.2095,-8.2123,-8.2181,-8.2209,-8.2145,-8.2307,-8.2327,-8.249,-8.2552,-8.2582,-8.2614,-8.2543,-8.2813,-8.2839,-8.2862,-8.2946,-8.298,-8.2577,-8.2576,-8.2575,-8.2574,0,-8.2117,-8.2207,-8.2301,-8.2358,-8.2407,-8.252,-8.2493,-8.2549,-8.2513,-8.2505,-8.2638,-8.2659,-8.273,-8.2767,-8.2733,-8.2927,-8.289,-8.2821,-8.2705,-8.2909,-8.2987,-8.3019,-8.2592,-8.2588,-8.2585,-8.2583,0,0,-8.2446,-8.2479,-8.2514,-8.2538,-8.2574,-8.2642,-8.2752,-8.2821,-8.2869,-8.2914,-8.3003,-8.3117,-8.3053,-8.309,-8.3059,-8.3141,-8.3337,-8.3061,-8.3061,-8.311,-8.3551,-8.3601,-8.3639,-8.3298,-8.3304,-8.3309,-8.3547,0,-8.2681,-8.2867,-8.2831,-8.3014,-8.3096,-8.3016,-8.3111,-8.3144,-8.3141,-8.321,-8.3207,-8.3288,-8.3198,-8.322,-8.3298,-8.3297,-8.3425,-8.328,-8.3381,-8.3385,-8.3371,-8.368,-8.3733,-8.3957,-8.3578,-8.3583,-8.3587,0,-8.2978,-8.3032,-8.3223,-8.3245,-8.3278,-8.3364,-8.3425,-8.3494,-8.353,-8.3522,-8.3564,-8.3517,-8.3627,-8.3513,-8.3663,-8.3565,-8.3605,-8.3611,-8.3619,-8.3624,-8.3496,-8.3692,-8.4027,-8.406,-8.3634,-8.3631,-8.3627,0,-8.3196,-8.3318,-8.3447,-8.3471,-8.3501,-8.3563,-8.3579,-8.3608,-8.3652,-8.3707,-8.3735,-8.3802,-8.3838,-8.3892,-8.3865,-8.3784,-8.402,-8.3903,-8.4016,-8.4017,-8.4066,-8.4063,-8.441,-8.4097,-8.4097,-8.4096,-8.4095,0,-8.346,-8.358,-8.3545,-8.3625,-8.3756,-8.3715,-8.3847,-8.3853,-8.3881,-8.396,-8.3897,-8.3973,-8.3934,-8.4008,-8.3989,-8.4115,-8.4133,-8.4129,-8.4122,-8.4133,-8.4134,-8.4156,-8.4139,-8.4105,-8.4103,-8.4101,-8.41,0,-8.3724,-8.3707,-8.3842,-8.386,-8.3867,-8.3963,-8.3978,-8.4053,-8.4046,-8.4148,-8.417,-8.4159,-8.4243,-8.4222,-8.4314,-8.4301,-8.446,-8.4435,-8.4448,-8.444,-8.4553,-8.4542,-8.4925,-8.4973,-8.4632,-8.4635,-8.4638,0,-8.3892,-8.3982,-8.401,-8.4058,-8.4078,-8.4158,-8.4203,-8.4167,-8.4217,-8.4265,-8.4334,-8.4413,-8.4473,-8.4611,-8.4612,-8.4682,-8.4656,-8.4786,-8.4666,-8.4675,-8.4655,-8.4649,-8.4658,-8.4809,-8.4813,-8.4816,-8.4818,0,-8.4192,-8.4179,-8.4245,-8.431,-8.4366,-8.4415,-8.4458,-8.4502,-8.447,-8.4529,-8.4614,-8.4661,-8.4755,-8.4833,-8.4898,-8.4915,-8.4862,-8.4857,-8.4886,-8.4897,-8.4899,-8.4897,-8.451,-8.4847,-8.4844,-8.4842,-8.4841,-8.4839,-8.4411,-8.4487,-8.4518,-8.4595,-8.4624,-8.4667,-8.4737,-8.474,-8.4809,-8.4882,-8.4858,-8.4955,-8.499,-8.5071,-8.5097,-8.5172,-8.5123,-8.5166,-8.5176,-8.5187,-8.52,-8.489,-8.5184,-8.5183,-8.5183,-8.5182,-8.5181,0,-8.4705,-8.4722,-8.4793,-8.4855,-8.4917,-8.4862,-8.4908,-8.4962,-8.5048,-8.5085,-8.5146,-8.5244,-8.532,-8.5328,-8.54,-8.5459,-8.5436,-8.5479,-8.5473,-8.5477,-8.524,-8.5207,-8.5496,-8.5496,-8.5496,-8.5496,-8.5496,-8.5496,-8.4865,-8.499,-8.4981,-8.5121,-8.5137,-8.523,-8.5261,-8.53,-8.5329,-8.5441,-8.5504,-8.5509,-8.5534,-8.5608,-8.5676,-8.5676,-8.5705,-8.5756,-8.5747,-8.5525,-8.5494,-8.5464,-8.5432,-8.5763,-8.5764,-8.5977,-8.5979,-8.5981]},{"header":{"parameterUnit":"m.s-1","parameterCategory":1,"la1":30.2991,"la2":30.254,"lo1":-89.0895,"lo2":-89.0444,"dy":0.0017,"dx":0.0017,"nx":28,"ny":28,"refTime":"2024-03-05T03:00:00:Z","depth":0,"parameterNumber":3,"parameterNumberName":"V-component_of_WINDS"},"data":[0,0,0,0,0,0,0,0,0,0,0,0,0,0,0,0,0,0,0,0,0,0,0,0,0,0,0,0,0,0,0,0,0,0,0,0,0,0,0,0,0,0,0,0,0,0,0,0,0,0,0,0,0,0,0,0,0,0,0.4272,0.4272,0,0.4249,0.4249,0.4248,0.4256,0.4257,0.4257,0.4258,0.423,0.4229,0.4227,0,0,0,0,0,0,0,0,0,0,0,0,0,0.4321,0.432,0.4272,0.4272,0.4271,0.4249,0.4249,0.4248,0.4256,0.4257,0.4258,0.4258,0.423,0.4229,0.4227,0,0,0,0,0,0,0,0,0,0,0,0,0,0.4299,0.4319,0.4272,0.4273,0.4273,0.4249,0.4249,0.4248,0.4256,0.4257,0.4258,0.4258,0.4231,0.4229,0.4227,0.42,0,0,0.4221,0.4221,0,0,0,0,0,0,0,0,0.43,0.4297,0.4273,0.4273,0.4272,0.4256,0.4256,0.4232,0.4256,0.4262,0.4258,0.4259,0.4238,0.4235,0.4229,0.4199,0.4198,0.4221,0.422,0.4219,0.4219,0,0,0,0,0,0,0,0.4301,0.4298,0.4263,0.4273,0.4272,0.4274,0.4271,0.4251,0.4246,0.4262,0.4262,0.426,0.4238,0.4231,0.4229,0.4197,0.4221,0.422,0.4219,0.4218,0.4147,0.4146,0,0,0,0,0,0,0.4303,0.4299,0.4263,0.4262,0.4288,0.4272,0.427,0.4261,0.4246,0.4245,0.4259,0.426,0.4234,0.4231,0.4228,0.4197,0.4219,0.4218,0.4217,0.4148,0.4147,0.4146,0,0,0,0,0,0,0.4304,0.43,0.4264,0.4281,0.4276,0.427,0.426,0.426,0.4253,0.4244,0.4243,0.4253,0.4234,0.423,0.4208,0.4196,0.4217,0.4215,0.4148,0.4147,0.4146,0.4134,0,0,0,0,0,0,0.4306,0.43,0.429,0.428,0.4275,0.4245,0.426,0.4259,0.425,0.4252,0.4238,0.4237,0.4235,0.4211,0.4206,0.4194,0.4214,0.4149,0.4148,0.4147,0.4136,0.4133,0.413,0,0,0,0,0,0.4307,0.4286,0.429,0.4285,0.4263,0.4245,0.4242,0.4241,0.4249,0.4239,0.4234,0.4237,0.4198,0.4208,0.4203,0.419,0.415,0.4148,0.4147,0.4137,0.4133,0.4131,0,0,0,0,0,0,0.4292,0.4285,0.4289,0.4264,0.4255,0.4246,0.4233,0.4237,0.4224,0.4226,0.4224,0.4221,0.4198,0.4192,0.4203,0.4165,0.4176,0.4173,0.417,0.4166,0.4164,0.4166,0.4212,0,0,0,0,0,0.4286,0.4273,0.4267,0.4246,0.4242,0.4238,0.423,0.4231,0.4221,0.4217,0.421,0.4199,0.4185,0.4175,0.4162,0.4135,0.4133,0.4124,0.4122,0.4119,0.4117,0.4105,0.4101,0.414,0.414,0.414,0,0,0.4273,0.4267,0.4259,0.4243,0.4236,0.4222,0.4235,0.4219,0.4209,0.4214,0.4193,0.4188,0.4176,0.4153,0.4142,0.4147,0.4106,0.4117,0.4116,0.4114,0.4103,0.4099,0.4096,0.4139,0.4139,0.4139,0,0,0.4242,0.4236,0.4219,0.4213,0.4205,0.4203,0.4199,0.419,0.4188,0.4168,0.4172,0.416,0.4135,0.4127,0.412,0.4091,0.4094,0.4086,0.4072,0.4061,0.4057,0.4055,0.4046,0.4042,0.4084,0.4084,0.4084,0,0.4226,0.4207,0.4209,0.4195,0.4188,0.4195,0.4178,0.4172,0.4158,0.4153,0.4159,0.413,0.4122,0.4098,0.4092,0.4085,0.4081,0.4087,0.4058,0.4055,0.4053,0.4044,0.404,0.4083,0.4083,0.4083,0.4083,0,0.4189,0.4176,0.4163,0.4152,0.4144,0.4128,0.4128,0.4119,0.4122,0.412,0.41,0.4092,0.4078,0.4073,0.4073,0.4049,0.4053,0.4059,0.4069,0.4048,0.404,0.4037,0.4082,0.4082,0.4082,0.4083,0,0,0.4145,0.4139,0.4134,0.4131,0.4124,0.4113,0.4098,0.4087,0.408,0.4071,0.4059,0.4039,0.4046,0.4038,0.4038,0.4028,0.4007,0.4035,0.4035,0.4031,0.3982,0.3978,0.3974,0.401,0.4009,0.4009,0.3984,0,0.4114,0.409,0.4093,0.4069,0.4058,0.4066,0.4054,0.4048,0.4046,0.4036,0.4034,0.4021,0.4029,0.4025,0.4015,0.4012,0.3998,0.4014,0.3998,0.3998,0.4001,0.397,0.3965,0.3941,0.398,0.398,0.3979,0,0.4075,0.4068,0.4043,0.4041,0.4036,0.4025,0.4016,0.4006,0.4,0.4,0.3993,0.3996,0.3982,0.3994,0.3974,0.3985,0.3979,0.3977,0.3976,0.3974,0.3987,0.3968,0.3934,0.393,0.3974,0.3975,0.3975,0,0.4047,0.4031,0.4015,0.4012,0.4008,0.4,0.3998,0.3993,0.3987,0.3979,0.3975,0.3965,0.3959,0.3952,0.3952,0.3961,0.3933,0.3944,0.3932,0.3932,0.3925,0.3925,0.389,0.3921,0.3921,0.3921,0.3921,0,0.4012,0.3997,0.4003,0.3993,0.3977,0.3982,0.3966,0.3964,0.3961,0.3951,0.3957,0.3947,0.3949,0.3939,0.3939,0.3924,0.3921,0.3921,0.3921,0.392,0.392,0.3916,0.3918,0.392,0.3921,0.3921,0.3921,0,0.3978,0.3981,0.3965,0.3964,0.3963,0.3952,0.3951,0.3941,0.3942,0.393,0.3927,0.3927,0.3917,0.3917,0.3904,0.3905,0.3886,0.3888,0.3889,0.3889,0.3878,0.3879,0.3838,0.3834,0.3867,0.3867,0.3867,0,0.3955,0.3945,0.3944,0.3939,0.3937,0.3928,0.3923,0.3928,0.3922,0.3917,0.3909,0.3899,0.3892,0.3875,0.3873,0.3864,0.3866,0.3853,0.3865,0.3865,0.3867,0.3868,0.3868,0.385,0.385,0.3849,0.3849,0,0.3916,0.3919,0.3913,0.3907,0.3902,0.3897,0.3893,0.3888,0.3893,0.3886,0.3877,0.3872,0.3861,0.3852,0.3844,0.3841,0.3846,0.3846,0.3843,0.3842,0.3843,0.3843,0.3883,0.3846,0.3847,0.3847,0.3847,0.3847,0.3887,0.388,0.3879,0.3872,0.387,0.3867,0.386,0.3861,0.3854,0.3846,0.385,0.3839,0.3836,0.3826,0.3823,0.3815,0.382,0.3815,0.3814,0.3813,0.3812,0.3845,0.3813,0.3814,0.3814,0.3814,0.3814,0,0.385,0.3851,0.3844,0.384,0.3835,0.3843,0.384,0.3835,0.3826,0.3823,0.3818,0.3808,0.38,0.38,0.3792,0.3786,0.3788,0.3784,0.3784,0.3784,0.3807,0.3811,0.3782,0.3782,0.3782,0.3782,0.3782,0.3782,0.3829,0.3817,0.382,0.3808,0.3808,0.38,0.3798,0.3796,0.3794,0.3784,0.3778,0.3779,0.3777,0.377,0.3764,0.3764,0.3761,0.3756,0.3757,0.3779,0.3782,0.3785,0.3789,0.3755,0.3755,0.3734,0.3734,0.3734]}]]